Location: Saratoga Springs
(43.0831°N, 73.7850°W)
Time: 03:25:43
(UTC-04:00)

Vanguard 2 Rocket - Pass Details

Date: 20 April 2024
Orbit: 556 x 3304 km, 32.9° (Epoch: 17 May)

Event Time Altitude Azimuth Distance (km) Brightness Sun altitude
Rises 21:46:59 0° 229° (SW) 5,929 11.2 -20.4°
Reaches altitude 10° 21:50:37 10° 224° (SW) 5,231 10.8 -20.9°
Maximum altitude 22:06:23 49° 156° (SSE) 3,791 9.5 -23.0°
Drops below altitude 10° 22:25:03 10° 90° (E) 6,115 10.7 -25.3°
Sets 22:29:41 0° 86° (E) 6,960 11.1 -25.8°
